SCP
0 0 0 0 0 0 0 0 0 0 1 1 2 2 3 3 2 2 2 2 2 2 3 4 5 5 4 3 3 2 2 2 2 2 2 2 1 2 2 1 1 1 1 1
0 0 0 0 0 0 0 0 1 1 1 2 2 2 2 2 2 1 2 2 2 3 4 4 5 5 5 4 3 2 2 2 2 2 2 2 1 1 2 1 1 1 1 1
0 0 0 0 0 0 1 1 1 1 1 2 2 2 2 1 1 1 2 2 3 5 6 6 7 6 6 5 4 3 2 2 1 1 1 1 1 1 1 1 1 1 1 1
0 0 0 0 0 0 1 1 1 1 1 1 2 2 2 1 1 1 2 2 3 4 6 8 8 8 7 6 5 4 3 2 1 1 1 2 2 2 1 1 1 1 1 1
0 0 0 0 0 0 1 1 1 1 1 1 1 1 1 1 1 1 1 1 2 2 3 5 7 7 7 6 5 4 3 2 2 1 1 2 2 2 2 1 1 2 2 1
0 0 0 0 0 0 1 1 1 1 1 1 1 1 1 1 1 1 1 1 1 1 1 2 3 5 6 5 4 4 3 2 1 1 1 2 2 2 2 2 2 2 2 2
0 0 0 0 0 0 1 1 1 1 1 1 1 1 1 1 1 1 1 1 1 1 1 1 2 3 4 4 3 3 3 2 1 1 1 1 1 1 2 2 2 2 2 2
0 0 0 0 0 1 1 1 1 1 2 1 1 1 1 1 1 0 0 0 1 1 1 1 2 2 2 2 2 2 2 2 1 1 1 1 1 1 2 2 2 2 2 2
0 0 0 0 1 1 1 1 1 1 1 1 1 1 1 1 1 1 0 0 1 1 1 1 1 1 1 1 2 2 2 2 2 2 1 1 1 1 2 2 2 2 1 1
0 0 0 0 0 1 1 1 1 1 1 0 0 1 1 1 1 1 0 0 0 0 0 0 1 1 1 2 2 2 2 2 2 1 1 2 2 2 1 1 1 1 1 1
0 0 0 0 0 1 1 1 1 1 0 0 0 1 1 1 1 1 1 0 0 0 0 0 1 1 2 2 2 2 2 1 1 1 1 1 2 1 1 1 1 1 1 1
0 0 0 0 0 0 1 1 1 1 0 0 0 0 1 1 1 1 1 1 1 1 1 1 1 1 1 1 2 2 1 1 1 1 1 1 1 1 0 0 0 0 0 0
0 0 0 0 0 0 1 1 1 0 0 0 0 0 1 1 1 1 1 1 1 1 1 1 1 1 1 1 1 1 1 1 1 1 1 1 1 0 0 0 0 0 0 0
0 0 0 0 0 0 0 1 0 0 0 0 0 1 1 1 1 1 0 0 0 0 1 1 1 1 1 1 1 1 1 1 1 1 1 1 0 0 0 0 0 0 0 0
0 0 0 0 0 0 0 0 0 0 0 0 0 1 1 1 1 1 1 1 0 0 0 0 1 0 0 1 1 1 1 0 0 1 1 0 0 0 0 0 0 0 0 0
0 0 0 0 0 0 0 0 0 0 0 0 0 1 1 1 1 1 1 1 1 0 0 0 0 0 0 0 0 0 0 0 0 0 0 0 0 0 0 0 0 0 0 0
0 0 0 0 0 0 0 0 0 0 0 0 0 0 0 0 1 1 1 1 1 0 0 1 1 0 0 0 0 0 0 0 0 0 0 0 0 0 0 0 0 0 0 0
0 0 0 0 0 0 0 0 0 0 0 0 0 0 0 0 1 1 1 1 0 0 1 1 1 0 0 0 0 0 0 0 0 0 0 0 0 0 0 0 0 0 0 0
0 0 0 0 0 0 0 0 0 0 0 0 0 0 0 0 0 1 1 1 0 1 1 1 1 0 0 0 0 0 0 0 0 0 0 0 0 0 0 0 0 0 0 0
0 0 0 0 0 0 0 0 0 0 0 0 0 0 0 0 0 1 1 1 1 1 1 1 0 0 0 0 0 0 0 0 0 1 1 0 0 0 0 0 0 0 0 0
0 0 0 0 0 0 0 0 0 0 0 0 0 0 0 0 0 1 1 1 1 1 1 1 0 0 0 0 0 0 0 0 0 0 1 1 1 0 0 0 0 0 0 0
1 1 0 0 0 0 0 0 0 0 0 0 0 0 0 0 0 1 1 1 1 1 0 0 0 0 0 0 0 0 0 0 0 0 0 1 1 0 0 0 0 0 0 0
1 1 1 0 0 0 0 1 0 0 0 0 0 0 0 0 0 0 0 0 0 0 0 0 0 0 0 0 0 0 0 0 0 0 0 1 1 1 0 0 0 0 0 0
1 1 1 0 1 1 1 1 0 0 0 0 0 0 0 0 0 0 0 0 0 0 0 0 0 0 0 0 0 0 0 0 0 0 0 0 0 0 0 0 0 0 0 0
1 1 1 1 1 1 1 0 0 0 0 0 0 0 0 0 0 0 0 0 0 0 0 0 0 0 0 0 0 0 0 0 0 0 0 0 0 0 0 0 0 0 0 0
1 1 1 1 1 1 0 0 0 0 0 0 0 0 0 0 0 0 1 0 0 0 0 0 0 0 0 0 0 0 0 0 0 0 0 0 0 0 0 0 0 0 0 0
1 1 1 1 1 0 0 0 0 0 0 0 0 0 0 0 0 0 1 0 0 0 0 0 0 0 0 0 0 0 0 0 0 0 0 0 0 0 0 0 0 0 0 0
Wind_Speed
12 13 13 13 12 10 8 7 7 7 5 5 5 4 4 4 4 4 5 5 5 4 3 2 2 2 3 3 2 2 2 2 2 1 1 2 2 3 2 2 3 2 2 2
13 13 12 11 11 10 7 7 6 5 3 4 4 4 4 4 4 4 4 5 6 4 3 2 2 2 2 3 2 2 2 3 2 2 2 2 2 2 2 2 2 2 2 2
10 12 12 5 7 8 6 8 7 6 5 5 4 4 4 3 3 4 5 5 6 6 4 3 2 2 2 2 2 2 2 3 2 2 2 2 3 2 2 2 2 2 2 2
9 10 6 4 7 8 7 6 8 7 6 6 5 4 3 3 4 5 5 5 5 5 4 3 2 2 2 2 2 2 2 2 3 3 2 2 2 2 2 2 2 2 2 2
6 7 6 6 8 8 7 6 8 7 6 6 6 4 2 4 5 4 3 3 4 4 4 3 3 3 2 2 3 3 3 3 3 3 2 2 2 2 2 2 3 3 3 3
7 8 7 6 8 8 6 3 9 9 7 7 6 5 3 5 5 4 3 3 3 4 4 3 3 2 3 3 3 3 3 3 3 3 3 3 2 3 3 3 3 4 3 2
9 8 4 7 11 10 6 6 9 8 7 7 6 5 4 5 4 4 3 4 4 4 4 3 3 2 3 3 3 3 3 3 3 3 3 3 2 3 2 3 3 4 3 3
7 7 4 11 11 8 6 7 8 7 6 6 5 5 5 5 4 3 3 4 4 4 4 3 3 2 3 3 3 3 3 3 3 3 4 3 2 2 3 3 3 3 3 3
5 5 6 8 7 5 6 7 7 7 5 5 5 5 6 5 4 4 4 4 4 4 4 3 3 2 3 3 3 4 3 3 3 3 3 3 3 2 2 2 2 3 2 2
6 5 8 8 8 8 7 8 7 6 5 6 6 6 6 5 4 4 4 4 4 5 4 4 3 2 3 4 3 3 3 3 3 3 3 2 2 2 2 2 2 2 2 1
8 7 7 7 9 10 9 8 7 6 5 5 5 5 5 4 4 3 3 3 3 4 4 4 4 3 3 3 2 2 3 3 3 4 3 2 1 1 2 1 1 1 2 2
7 7 8 8 8 9 9 8 7 7 6 5 5 5 5 4 3 3 3 3 3 4 5 5 4 3 3 2 2 2 3 3 3 3 2 2 2 1 0 1 1 1 1 2
6 6 7 8 8 9 9 9 8 7 6 6 5 5 4 4 3 3 3 4 4 5 5 4 3 3 3 2 2 2 3 3 3 4 3 2 2 2 2 1 1 1 2 2
6 5 7 8 8 9 9 9 8 6 6 6 5 4 4 4 4 4 3 4 4 5 5 4 3 3 2 2 2 3 3 3 4 4 3 2 2 2 2 1 1 2 3 5
6 6 7 7 7 7 7 8 7 6 6 6 5 4 4 5 5 4 3 4 4 4 4 4 4 3 2 2 2 3 3 3 3 3 3 3 3 2 2 1 1 1 0 2
7 6 6 6 7 7 8 8 7 6 6 6 5 5 5 5 4 4 3 3 3 4 4 4 4 3 2 2 2 2 3 5 4 3 3 3 3 2 2 1 1 1 1 1
7 6 6 7 7 7 8 7 6 6 6 6 6 5 5 5 4 4 4 4 3 3 4 4 3 3 2 2 2 4 4 3 4 3 3 3 2 2 2 2 2 2 1 1
7 7 7 6 7 7 7 7 6 6 6 6 6 6 5 4 5 4 4 4 3 3 3 3 2 3 3 3 3 4 5 3 2 2 2 2 2 2 3 2 2 2 2 1
6 6 6 7 7 6 7 6 6 6 7 6 5 5 5 5 4 4 4 4 4 4 3 2 2 3 4 3 4 4 4 4 2 2 2 1 2 2 2 3 3 3 3 2
6 6 7 7 6 6 6 6 6 6 6 5 5 6 6 5 4 4 5 5 4 3 2 2 2 3 3 3 5 4 4 4 3 2 2 1 2 2 2 3 3 2 2 2
6 7 7 7 7 6 6 6 6 6 6 5 6 6 6 5 5 4 4 5 3 3 3 3 2 2 3 3 4 5 4 3 3 2 2 2 2 2 2 3 3 3 3 2
7 6 7 8 7 7 6 6 7 7 6 6 6 6 5 6 6 5 5 4 3 2 3 2 2 3 3 4 4 4 4 3 3 2 2 1 1 2 2 2 2 2 2 2
7 7 7 7 7 7 8 7 7 6 6 6 6 6 5 5 5 4 4 3 3 3 3 2 2 2 3 4 4 4 4 4 3 3 2 1 2 2 2 2 2 2 2 2
7 7 7 7 7 7 8 8 7 6 7 6 6 6 5 4 4 4 3 2 3 3 3 2 3 3 4 4 4 4 4 3 3 3 2 2 2 1 1 1 2 2 1 2
7 7 7 7 7 6 7 8 7 7 7 5 5 5 5 4 3 2 2 2 4 4 4 4 5 6 5 5 4 4 3 3 3 3 2 2 2 1 1 1 1 1 2 2
7 6 6 7 7 6 6 6 6 6 5 5 4 4 4 2 3 3 2 4 5 5 5 4 4 5 5 5 5 4 3 3 3 3 2 2 2 2 1 1 1 1 2 2
8 7 6 7 6 7 6 6 6 6 5 5 4 4 4 3 3 3 4 4 4 4 4 4 4 4 4 4 4 3 3 2 2 2 2 2 2 1 1 1 1 1 2 2
Wind_Direction
297 295 299 299 301 303 307 305 296 304 327 356 18 39 39 33 36 32 19 17 18 11 7 5 2 3 358 347 346 347 314 291 282 260 232 254 275 282 278 282 290 301 305 299
295 292 295 299 308 308 310 318 311 304 348 5 26 46 51 35 26 19 11 9 358 351 353 348 342 336 343 333 327 313 296 289 280 276 267 258 256 256 259 264 281 291 298 311
301 313 307 307 344 341 353 359 341 344 6 18 31 29 30 27 16 14 11 358 349 346 341 336 331 324 318 306 301 298 291 289 287 275 274 275 272 262 266 275 280 284 285 292
299 310 304 354 357 352 345 15 10 17 18 16 26 41 44 43 33 16 5 353 344 334 334 331 333 329 301 298 296 289 292 305 303 282 278 275 273 259 253 263 265 262 269 268
294 303 300 330 351 342 342 12 21 19 19 17 21 25 50 42 30 15 359 346 331 323 326 323 315 309 294 303 305 307 312 305 298 296 288 273 267 275 266 259 263 259 257 261
282 294 294 338 343 347 332 350 21 11 8 2 358 338 355 4 0 7 3 346 334 324 323 322 321 316 304 303 306 308 303 297 301 305 298 276 259 258 260 255 258 263 263 267
283 284 298 1 349 348 339 348 349 355 359 359 360 346 336 333 347 5 353 340 333 325 325 317 315 317 318 311 309 307 300 299 306 304 297 287 267 264 263 261 265 263 267 257
300 294 312 5 360 12 352 335 337 345 358 4 354 345 338 338 345 344 336 329 325 322 322 311 298 294 303 304 305 301 295 300 305 302 298 296 284 277 268 261 264 265 269 266
314 312 336 356 3 358 345 332 332 332 345 343 337 333 332 334 332 331 332 326 322 314 312 304 291 279 290 296 296 293 288 296 294 292 290 285 272 274 273 261 262 269 265 268
305 316 331 340 348 354 348 336 328 329 341 338 335 329 326 326 322 325 325 323 316 313 314 310 302 292 278 281 286 291 285 280 273 275 271 271 282 291 280 291 292 294 302 315
295 312 322 327 338 342 338 331 330 335 333 331 327 317 314 314 309 311 314 311 304 306 307 305 300 300 290 286 288 291 286 272 270 266 254 251 244 317 315 338 333 323 338 339
306 323 317 318 324 323 320 323 326 329 326 326 318 312 309 309 304 294 296 296 293 294 297 299 300 302 301 279 276 285 285 281 279 273 255 242 213 199 6 228 153 87 14 348
306 315 314 309 313 318 316 316 317 319 318 316 315 312 304 298 294 288 286 286 284 285 289 296 301 299 299 288 288 285 283 283 284 281 274 261 239 227 217 203 232 270 284 274
306 307 299 307 315 317 313 312 310 311 310 311 311 306 301 298 296 291 288 287 285 289 289 290 290 293 306 308 304 293 285 281 279 282 283 279 264 251 238 222 224 228 238 241
305 301 300 306 309 310 310 308 305 308 314 312 309 302 299 299 299 296 286 285 282 283 290 302 304 305 305 295 294 301 293 285 274 283 283 283 279 276 276 263 276 286 260 238
304 303 303 303 307 310 307 306 308 307 310 310 305 300 300 299 291 289 286 280 283 292 302 305 303 306 291 284 287 281 271 273 273 281 293 292 292 308 331 325 304 305 300 334
297 300 303 304 303 301 303 310 312 307 309 307 301 296 296 298 296 285 284 285 286 296 295 297 296 296 284 275 275 284 283 266 239 265 284 292 304 320 324 318 319 323 338 15
288 291 296 297 297 297 301 305 307 308 307 301 297 295 291 285 283 286 290 295 286 286 284 291 295 288 284 281 279 284 285 284 259 259 273 301 321 317 307 311 314 323 331 345
289 291 294 289 289 293 297 304 309 307 304 302 303 303 296 288 281 283 286 282 278 276 279 284 272 278 281 280 276 270 277 278 261 260 271 298 287 297 313 323 329 330 329 347
287 291 295 295 294 296 301 305 306 303 301 301 299 297 294 289 277 275 277 273 264 272 271 258 247 260 265 268 272 271 273 276 270 264 261 272 284 298 317 322 323 329 342 346
293 296 300 304 303 300 302 302 298 294 293 289 285 282 283 278 269 267 265 265 251 249 256 234 245 263 264 276 267 273 275 273 276 269 268 270 280 307 319 322 335 349 348 348
300 300 300 300 300 301 300 298 292 289 291 283 276 272 273 270 260 254 250 256 258 236 247 241 238 263 286 279 260 270 282 287 286 277 279 290 298 306 309 321 334 336 340 352
298 297 296 295 295 295 295 292 287 290 286 278 274 270 270 273 265 252 248 227 226 212 243 260 262 264 271 258 260 275 287 288 288 289 296 294 287 289 300 319 324 336 357 3
294 293 293 294 290 286 285 287 288 285 281 277 268 268 269 270 264 244 231 199 199 199 233 231 209 228 241 249 261 263 268 275 278 277 275 267 267 288 322 320 310 319 344 3
290 288 286 289 285 279 281 285 282 278 274 269 266 268 265 258 263 259 233 193 193 205 217 211 215 225 236 249 256 257 260 270 273 277 281 286 287 267 270 292 314 343 1 25
282 276 278 279 281 277 270 270 268 265 264 262 260 267 273 262 250 235 224 217 217 224 229 216 211 220 235 248 255 253 252 258 260 261 267 269 278 283 298 321 356 11 16 39
276 274 268 265 266 265 264 265 268 267 264 262 265 266 264 257 244 234 229 227 222 226 228 227 228 228 235 244 251 253 250 242 241 247 251 254 266 271 308 36 64 49 27 29